Weather History for HELX - October, 2012

Change the Weather History Date:

Friday, October 26, 2012

  Actual Average Record
Temperature  
Mean Temperature 78 °F -  
Max Temperature 91 °F 82 °F 102 °F (1999)
Min Temperature 64 °F 55 °F 55 °F (2000)
Cooling Degree Days 12    
Growing Degree Days 28 (Base 50)    
Moisture  
Dew Point 51 °F    
Average Humidity 37    
Maximum Humidity 49    
Minimum Humidity 21    
Precipitation  
Precipitation 0.00 in 0.00 in - ()
Sea Level Pressure  
Sea Level Pressure 29.88 in    
Wind  
Wind Speed 2 mph ()    
Max Wind Speed 4 mph    
Max Gust Speed -    
Visibility 6.0 miles    
Events      
Averages and records for this station are not official NWS values.
T = Trace of Precipitation, MM = Missing Value Source: Averaged Metar Reports

Daily Weather History Graph

Daily Weather History Graph

Search for Another Location

Airport or City:

Trip Planner

Search our weather history database for the weather conditions in past years. The results will help you decide how hot, cold, wet, or windy it might be!

Date:

Astronomy

Oct. 26, 2012 Rise Set
Actual Time 5:53 AM EET 5:11 PM EET
Civil Twilight 5:30 AM EET 5:35 PM EET
Nautical Twilight 5:03 AM EET 6:02 PM EET
Astronomical Twilight 4:36 AM EET 6:29 PM EET
Moon 3:03 PM EET (10/26) 2:47 AM EET (10/26)
Length of Visible Light 12h 05m
Length of Day
11h 18m
Waxing Gibbous, 89% of the Moon is Illuminated
Oct 26
Waxing Gibbous
Oct 29
Full
Nov 7
Last Quarter
Nov 14
New
Nov 20
First Quarter

Hourly Weather History & Observations

Time (EET) Temp. Heat Index Dew Point Humidity Pressure Visibility Wind Dir Wind Speed Gust Speed Precip Events Conditions
12:00 AM 73.4 °F - 46.4 °F 38% 29.89 in - South 1.2 mph - N/A   Clear
1:00 AM 71.6 °F - 48.2 °F 43% 29.89 in - West 2.3 mph - N/A   Clear
2:00 AM 71 °F - 47 °F 30% 29.88 in 6 mi South 2.3 mph - -  
2:00 AM 71.6 °F - 46.4 °F 41% 29.89 in - South 2.3 mph - N/A   Clear
3:00 AM 69.8 °F - 46.4 °F 43% 29.89 in - Calm Calm - N/A   Clear
4:00 AM 68.0 °F - 46.4 °F 46% 29.89 in - Calm Calm - N/A   Clear
5:00 AM 68.0 °F - 46.4 °F 46% 29.89 in - ESE 2.3 mph - N/A   Clear
6:00 AM 64.4 °F - 44.6 °F 49% 29.92 in - Calm Calm - N/A   Clear
7:00 AM 66.2 °F - 44.6 °F 46% 29.92 in - SSE 2.3 mph - N/A   Clear
8:00 AM 74 °F - 48 °F 28% 29.94 in 6 mi SSE 3.5 mph - -  
8:00 AM 73.4 °F - 48.2 °F 41% 29.95 in - SSE 3.5 mph - N/A   Clear
9:00 AM 78.8 °F - 55.4 °F 44% 29.95 in - West 3.5 mph - N/A   Clear
10:00 AM 82.4 °F 82.0 °F 57.2 °F 42% 29.92 in - West 3.5 mph - N/A   Clear
12:00 PM 87.8 °F 86.1 °F 55.4 °F 33% 29.89 in - WSW 2.3 mph - N/A   Clear
1:00 PM 89.6 °F 87.7 °F 55.4 °F 31% 29.86 in - WSW 2.3 mph - N/A   Clear
2:00 PM 90 °F - 55 °F 21% 29.84 in 6 mi ESE 2.3 mph - -  
2:00 PM 89.6 °F 87.7 °F 55.4 °F 31% 29.83 in - ESE 2.3 mph - N/A   Clear
3:00 PM 91.4 °F 89.4 °F 55.4 °F 29% 29.83 in - Calm Calm - N/A   Clear
4:00 PM 89.6 °F 87.7 °F 55.4 °F 31% 29.83 in - NW 2.3 mph - N/A   Clear
5:00 PM 87.8 °F 85.7 °F 53.6 °F 31% 29.83 in - NNW 3.5 mph - N/A   Clear
6:00 PM 84.2 °F - 51.8 °F 33% 29.86 in - Calm Calm - N/A   Clear
7:00 PM 78.8 °F - 51.8 °F 39% 29.86 in - NW 2.3 mph - N/A   Clear
8:00 PM 78 °F - 53 °F 31% 29.88 in 6 mi WNW 2.3 mph - -  
8:00 PM 78.8 °F - 53.6 °F 42% 29.89 in - WNW 2.3 mph - N/A   Clear
9:00 PM 78.8 °F - 51.8 °F 39% 29.89 in - Calm Calm - N/A   Clear
10:00 PM 77.0 °F - 50.0 °F 39% 29.89 in - SE 2.3 mph - N/A   Clear
11:00 PM 77.0 °F - 50.0 °F 39% 29.89 in - SE 2.3 mph - N/A   Clear